Terug naar catalogus

CZ-3B DEB

LostGTO
NORAD 40841·DEBRIS·🇨🇳 China

Gelanceerd Dec 19, 2011 vanaf Xichang Satellite Launch Center

Loading…

TLE

VerouderdSource: Space-Track

Epoch: Aug 4, 2025, 23:37 UTC

1 40841U 11077W   25216.98456110 -.00000512  00000-0 -21801-2 0  9997
2 40841  27.1693  88.9480 7314421 211.0665  70.1507  1.93657614 81794

Volg CZ-3B DEB in realtime met AllMySat

Download on the App Store